Torna al catalogo

COSMOS 2251 DEB

AttivoLEO
NORAD 34572·DEBRIS·🇷🇺 Russia

Lanciato Jun 16, 1993 da Plesetsk Cosmodrome

Loading…

Prossimi Passaggi (prossime 24 ore)

TLE

AggiornatoSource: Space-Track

Epoca: Sep 13, 2026, 06:01 UTC

1 34572U 93036VJ  26256.25126310  .00003417  00000-0  79705-3 0  9999
2 34572  74.0088 317.2086 0064710 323.0205 100.1393 14.53884025913639

Traccia COSMOS 2251 DEB in tempo reale con AllMySat

Download on the App Store